contact:dominique.lefevre@mio.osupytheas.fr, maurice.libes@osupytheas.fr, didier.mallarino@osupytheas.fr
Project:EMSO http://www.emso-fr.org/EMSO-France
Depth: 2436.0 m
Title:EMSO Ligure Ouest : Data MII capteur CSTAR
DateTime,Latitude,Longitude,Instrument_Serial,Reference_Counts,Signal_Counts,Corrected_Signal_raw_counts,Calculated_Beam_c_inverse_meters,Internal_thermistor_counts
DateTime,Latitude,Longitude,Instrument_Serial,Reference_Counts,Signal_Counts,Corrected_Signal_raw_counts,Calculated_Beam_c_inverse_meters,Internal_thermistor_counts
2021-05-19T00:01:29,42.805,6.029,CST-1368DR,5447,7600,14975,0.168,550
2021-05-19T00:04:31,42.805,6.029,CST-1368DR,5447,7600,14975,0.168,551
2021-05-19T00:07:33,42.805,6.029,CST-1368DR,5447,7599,14974,0.168,551
2021-05-19T00:10:34,42.805,6.029,CST-1368DR,5447,7599,14974,0.168,551
2021-05-19T00:13:36,42.805,6.029,CST-1368DR,5447,7597,14970,0.169,551
2021-05-19T00:16:37,42.805,6.029,CST-1368DR,5446,7598,14975,0.168,551
2021-05-19T00:19:39,42.805,6.029,CST-1368DR,5447,7599,14974,0.168,551
2021-05-19T00:22:40,42.805,6.029,CST-1368DR,5447,7599,14974,0.168,551
2021-05-19T00:25:42,42.805,6.029,CST-1368DR,5447,7598,14972,0.168,551
2021-05-19T00:28:44,42.805,6.029,CST-1368DR,5446,7599,14976,0.167,551
2021-05-19T00:31:45,42.805,6.029,CST-1368DR,5447,7599,14974,0.168,551
2021-05-19T00:34:47,42.805,6.029,CST-1368DR,5446,7599,14976,0.167,551
2021-05-19T00:37:48,42.805,6.029,CST-1368DR,5446,7599,14976,0.167,551
2021-05-19T00:40:50,42.805,6.029,CST-1368DR,5446,7596,14970,0.169,551
2021-05-19T00:43:52,42.805,6.029,CST-1368DR,5447,7599,14974,0.168,551
2021-05-19T00:46:53,42.805,6.029,CST-1368DR,5447,7600,14975,0.168,550
2021-05-19T00:49:55,42.805,6.029,CST-1368DR,5447,7600,14975,0.168,551
2021-05-19T00:52:56,42.805,6.029,CST-1368DR,5446,7599,14977,0.167,551
2021-05-19T00:55:58,42.805,6.029,CST-1368DR,5446,7599,14976,0.167,551
2021-05-19T00:58:59,42.805,6.029,CST-1368DR,5446,7598,14975,0.168,551
2021-05-19T01:02:01,42.805,6.029,CST-1368DR,5446,7599,14976,0.167,551
2021-05-19T01:05:03,42.805,6.029,CST-1368DR,5446,7598,14974,0.168,551
2021-05-19T01:08:04,42.805,6.029,CST-1368DR,5446,7599,14976,0.167,551
2021-05-19T01:11:06,42.805,6.029,CST-1368DR,5446,7598,14975,0.168,551
2021-05-19T01:14:07,42.805,6.029,CST-1368DR,5446,7599,14975,0.168,551
2021-05-19T01:17:09,42.805,6.029,CST-1368DR,5446,7598,14975,0.168,551
2021-05-19T01:20:11,42.805,6.029,CST-1368DR,5446,7598,14974,0.168,551
2021-05-19T01:23:12,42.805,6.029,CST-1368DR,5446,7598,14973,0.168,551
2021-05-19T01:26:14,42.805,6.029,CST-1368DR,5446,7598,14975,0.168,551
2021-05-19T01:29:15,42.805,6.029,CST-1368DR,5446,7598,14975,0.168,551
2021-05-19T01:32:17,42.805,6.029,CST-1368DR,5446,7598,14974,0.168,551
2021-05-19T01:35:18,42.805,6.029,CST-1368DR,5446,7598,14975,0.168,551
2021-05-19T01:38:20,42.805,6.029,CST-1368DR,5446,7599,14975,0.168,551
2021-05-19T01:41:22,42.805,6.029,CST-1368DR,5446,7599,14975,0.168,551
2021-05-19T01:44:23,42.805,6.029,CST-1368DR,5446,7599,14975,0.168,551
2021-05-19T01:47:25,42.805,6.029,CST-1368DR,5446,7599,14975,0.168,551
2021-05-19T01:50:26,42.805,6.029,CST-1368DR,5446,7599,14975,0.168,551
2021-05-19T01:53:28,42.805,6.029,CST-1368DR,5446,7598,14974,0.168,551
2021-05-19T01:56:30,42.805,6.029,CST-1368DR,5446,7599,14975,0.168,551
2021-05-19T01:59:31,42.805,6.029,CST-1368DR,5446,7598,14974,0.168,551
2021-05-19T02:02:33,42.805,6.029,CST-1368DR,5446,7598,14974,0.168,551
2021-05-19T02:05:34,42.805,6.029,CST-1368DR,5446,7598,14974,0.168,551
2021-05-19T02:08:36,42.805,6.029,CST-1368DR,5446,7598,14974,0.168,551
2021-05-19T02:11:37,42.805,6.029,CST-1368DR,5446,7598,14974,0.168,551
2021-05-19T02:14:39,42.805,6.029,CST-1368DR,5446,7598,14975,0.168,551
2021-05-19T02:17:41,42.805,6.029,CST-1368DR,5446,7599,14976,0.167,551
2021-05-19T02:20:42,42.805,6.029,CST-1368DR,5446,7599,14975,0.168,551
2021-05-19T02:23:44,42.805,6.029,CST-1368DR,5446,7598,14974,0.168,551
2021-05-19T02:26:45,42.805,6.029,CST-1368DR,5446,7598,14974,0.168,551
2021-05-19T02:29:47,42.805,6.029,CST-1368DR,5446,7598,14973,0.168,550
2021-05-19T02:32:48,42.805,6.029,CST-1368DR,5446,7598,14975,0.168,551
2021-05-19T02:35:50,42.805,6.029,CST-1368DR,5446,7599,14975,0.168,551
2021-05-19T02:38:52,42.805,6.029,CST-1368DR,5446,7598,14974,0.168,551
2021-05-19T02:41:53,42.805,6.029,CST-1368DR,5446,7598,14974,0.168,551
2021-05-19T02:44:55,42.805,6.029,CST-1368DR,5446,7598,14975,0.168,551
2021-05-19T02:47:56,42.805,6.029,CST-1368DR,5446,7598,14975,0.168,551
2021-05-19T02:50:58,42.805,6.029,CST-1368DR,5446,7598,14975,0.168,551
2021-05-19T02:54:00,42.805,6.029,CST-1368DR,5446,7598,14974,0.168,551
2021-05-19T02:57:01,42.805,6.029,CST-1368DR,5446,7598,14974,0.168,551
2021-05-19T03:00:03,42.805,6.029,CST-1368DR,5446,7598,14974,0.168,551
2021-05-19T03:03:04,42.805,6.029,CST-1368DR,5446,7598,14975,0.168,551
2021-05-19T03:06:06,42.805,6.029,CST-1368DR,5446,7598,14973,0.168,551
2021-05-19T03:09:07,42.805,6.029,CST-1368DR,5446,7597,14972,0.168,551
2021-05-19T03:12:09,42.805,6.029,CST-1368DR,5446,7599,14975,0.168,551
2021-05-19T03:15:11,42.805,6.029,CST-1368DR,5446,7598,14975,0.168,551
2021-05-19T03:18:12,42.805,6.029,CST-1368DR,5446,7598,14975,0.168,551
2021-05-19T03:21:14,42.805,6.029,CST-1368DR,5446,7598,14974,0.168,551
2021-05-19T03:24:15,42.805,6.029,CST-1368DR,5446,7598,14975,0.168,551
2021-05-19T03:27:17,42.805,6.029,CST-1368DR,5446,7598,14973,0.168,551
2021-05-19T03:30:19,42.805,6.029,CST-1368DR,5446,7598,14975,0.168,551
2021-05-19T03:33:20,42.805,6.029,CST-1368DR,5446,7598,14974,0.168,551
2021-05-19T03:36:22,42.805,6.029,CST-1368DR,5446,7598,14975,0.168,551
2021-05-19T03:39:23,42.805,6.029,CST-1368DR,5446,7598,14974,0.168,551
2021-05-19T03:42:25,42.805,6.029,CST-1368DR,5446,7598,14974,0.168,551
2021-05-19T03:45:26,42.805,6.029,CST-1368DR,5446,7597,14972,0.168,551
2021-05-19T03:48:28,42.805,6.029,CST-1368DR,5446,7599,14975,0.168,551
2021-05-19T03:51:30,42.805,6.029,CST-1368DR,5446,7598,14975,0.168,551
2021-05-19T03:54:31,42.805,6.029,CST-1368DR,5446,7598,14974,0.168,551
2021-05-19T03:57:33,42.805,6.029,CST-1368DR,5446,7599,14975,0.168,551
2021-05-19T04:00:34,42.805,6.029,CST-1368DR,5446,7599,14975,0.168,551
2021-05-19T04:03:36,42.805,6.029,CST-1368DR,5446,7598,14974,0.168,551
2021-05-19T04:06:37,42.805,6.029,CST-1368DR,5446,7598,14975,0.168,551
2021-05-19T04:09:39,42.805,6.029,CST-1368DR,5446,7598,14974,0.168,551
2021-05-19T04:12:41,42.805,6.029,CST-1368DR,5446,7599,14976,0.167,551
2021-05-19T04:15:42,42.805,6.029,CST-1368DR,5446,7599,14975,0.168,551
2021-05-19T04:18:44,42.805,6.029,CST-1368DR,5446,7598,14974,0.168,551
2021-05-19T04:21:45,42.805,6.029,CST-1368DR,5446,7599,14975,0.168,551
2021-05-19T04:24:47,42.805,6.029,CST-1368DR,5446,7599,14976,0.167,551
2021-05-19T04:27:49,42.805,6.029,CST-1368DR,5446,7599,14976,0.167,551
2021-05-19T04:30:50,42.805,6.029,CST-1368DR,5446,7598,14974,0.168,551
2021-05-19T04:33:52,42.805,6.029,CST-1368DR,5446,7599,14976,0.167,551
2021-05-19T04:36:53,42.805,6.029,CST-1368DR,5446,7598,14975,0.168,551
2021-05-19T04:39:55,42.805,6.029,CST-1368DR,5446,7599,14975,0.168,551
2021-05-19T04:42:56,42.805,6.029,CST-1368DR,5446,7599,14976,0.167,551
2021-05-19T04:45:58,42.805,6.029,CST-1368DR,5446,7599,14976,0.167,551
2021-05-19T04:49:00,42.805,6.029,CST-1368DR,5446,7599,14975,0.168,551
2021-05-19T04:52:01,42.805,6.029,CST-1368DR,5446,7598,14975,0.168,551
2021-05-19T04:55:03,42.805,6.029,CST-1368DR,5446,7599,14976,0.167,551
2021-05-19T04:58:04,42.805,6.029,CST-1368DR,5446,7597,14973,0.168,551
2021-05-19T05:01:06,42.805,6.029,CST-1368DR,5446,7599,14975,0.168,551
2021-05-19T05:04:08,42.805,6.029,CST-1368DR,5446,7599,14976,0.167,551
2021-05-19T05:07:09,42.805,6.029,CST-1368DR,5446,7599,14975,0.168,551
2021-05-19T05:10:11,42.805,6.029,CST-1368DR,5446,7599,14975,0.168,551
2021-05-19T05:13:12,42.805,6.029,CST-1368DR,5446,7599,14975,0.168,551
2021-05-19T05:16:14,42.805,6.029,CST-1368DR,5446,7598,14974,0.168,551
2021-05-19T05:19:15,42.805,6.029,CST-1368DR,5446,7598,14974,0.168,551
2021-05-19T05:22:17,42.805,6.029,CST-1368DR,5446,7598,14974,0.168,551
2021-05-19T05:25:19,42.805,6.029,CST-1368DR,5446,7599,14976,0.167,551
2021-05-19T05:28:20,42.805,6.029,CST-1368DR,5446,7598,14974,0.168,551
2021-05-19T05:31:22,42.805,6.029,CST-1368DR,5446,7599,14976,0.167,551
2021-05-19T05:34:23,42.805,6.029,CST-1368DR,5446,7599,14975,0.168,551
2021-05-19T05:37:25,42.805,6.029,CST-1368DR,5446,7599,14975,0.168,551
2021-05-19T05:40:27,42.805,6.029,CST-1368DR,5446,7599,14975,0.168,551
2021-05-19T05:43:28,42.805,6.029,CST-1368DR,5446,7599,14975,0.168,551
2021-05-19T05:46:30,42.805,6.029,CST-1368DR,5446,7598,14974,0.168,551
2021-05-19T05:49:31,42.805,6.029,CST-1368DR,5446,7599,14975,0.168,551
2021-05-19T05:52:33,42.805,6.029,CST-1368DR,5446,7598,14975,0.168,551
2021-05-19T05:55:34,42.805,6.029,CST-1368DR,5446,7598,14975,0.168,551
2021-05-19T05:58:36,42.805,6.029,CST-1368DR,5446,7598,14974,0.168,551
2021-05-19T06:01:38,42.805,6.029,CST-1368DR,5446,7598,14974,0.168,551
2021-05-19T06:04:39,42.805,6.029,CST-1368DR,5446,7599,14975,0.168,551
2021-05-19T06:07:41,42.805,6.029,CST-1368DR,5446,7599,14975,0.168,550
2021-05-19T06:10:42,42.805,6.029,CST-1368DR,5446,7599,14976,0.167,551
2021-05-19T06:13:44,42.805,6.029,CST-1368DR,5446,7598,14974,0.168,551
2021-05-19T06:16:45,42.805,6.029,CST-1368DR,5446,7599,14975,0.168,551
2021-05-19T06:19:47,42.805,6.029,CST-1368DR,5446,7599,14976,0.167,551
2021-05-19T06:22:49,42.805,6.029,CST-1368DR,5446,7598,14975,0.168,551
2021-05-19T06:25:50,42.805,6.029,CST-1368DR,5446,7599,14975,0.168,551
2021-05-19T06:28:52,42.805,6.029,CST-1368DR,5446,7598,14974,0.168,551
2021-05-19T06:31:53,42.805,6.029,CST-1368DR,5446,7599,14976,0.167,551
2021-05-19T06:34:55,42.805,6.029,CST-1368DR,5446,7599,14975,0.168,551
2021-05-19T06:37:57,42.805,6.029,CST-1368DR,5446,7598,14974,0.168,551
2021-05-19T06:40:58,42.805,6.029,CST-1368DR,5446,7598,14973,0.168,551
2021-05-19T06:44:00,42.805,6.029,CST-1368DR,5446,7598,14974,0.168,551
2021-05-19T06:47:01,42.805,6.029,CST-1368DR,5446,7598,14975,0.168,551
2021-05-19T06:50:03,42.805,6.029,CST-1368DR,5446,7598,14975,0.168,551
2021-05-19T06:53:04,42.805,6.029,CST-1368DR,5446,7598,14974,0.168,551
2021-05-19T06:56:06,42.805,6.029,CST-1368DR,5446,7598,14974,0.168,551
2021-05-19T06:59:08,42.805,6.029,CST-1368DR,5446,7598,14974,0.168,551
2021-05-19T07:02:09,42.805,6.029,CST-1368DR,5446,7598,14975,0.168,551
2021-05-19T07:05:11,42.805,6.029,CST-1368DR,5446,7598,14974,0.168,551
2021-05-19T07:08:12,42.805,6.029,CST-1368DR,5446,7598,14974,0.168,551
2021-05-19T07:11:14,42.805,6.029,CST-1368DR,5446,7598,14974,0.168,551
2021-05-19T07:14:15,42.805,6.029,CST-1368DR,5446,7598,14974,0.168,551
2021-05-19T07:17:17,42.805,6.029,CST-1368DR,5446,7598,14974,0.168,551
2021-05-19T07:20:19,42.805,6.029,CST-1368DR,5446,7598,14974,0.168,551
2021-05-19T07:23:20,42.805,6.029,CST-1368DR,5446,7598,14974,0.168,551
2021-05-19T07:26:22,42.805,6.029,CST-1368DR,5446,7598,14974,0.168,551
2021-05-19T07:29:23,42.805,6.029,CST-1368DR,5446,7598,14973,0.168,551
2021-05-19T07:32:25,42.805,6.029,CST-1368DR,5446,7597,14973,0.168,551
2021-05-19T07:35:27,42.805,6.029,CST-1368DR,5446,7596,14970,0.169,551
2021-05-19T07:38:28,42.805,6.029,CST-1368DR,5446,7596,14971,0.169,551
2021-05-19T07:41:30,42.805,6.029,CST-1368DR,5446,7597,14972,0.168,551
2021-05-19T07:44:31,42.805,6.029,CST-1368DR,5446,7597,14972,0.168,551
2021-05-19T07:47:33,42.805,6.029,CST-1368DR,5446,7597,14972,0.168,551
2021-05-19T07:50:34,42.805,6.029,CST-1368DR,5446,7597,14973,0.168,551
2021-05-19T07:53:36,42.805,6.029,CST-1368DR,5446,7598,14974,0.168,551
2021-05-19T07:56:38,42.805,6.029,CST-1368DR,5446,7596,14971,0.169,551
2021-05-19T07:59:39,42.805,6.029,CST-1368DR,5446,7598,14973,0.168,551
2021-05-19T08:02:41,42.805,6.029,CST-1368DR,5446,7597,14973,0.168,551
2021-05-19T08:05:42,42.805,6.029,CST-1368DR,5446,7597,14972,0.168,551
2021-05-19T08:08:44,42.805,6.029,CST-1368DR,5446,7597,14973,0.168,551
2021-05-19T08:11:46,42.805,6.029,CST-1368DR,5446,7597,14972,0.168,551
2021-05-19T08:14:47,42.805,6.029,CST-1368DR,5446,7597,14972,0.168,551
2021-05-19T08:17:49,42.805,6.029,CST-1368DR,5446,7596,14970,0.169,551
2021-05-19T08:20:50,42.805,6.029,CST-1368DR,5446,7597,14972,0.168,551
2021-05-19T08:23:52,42.805,6.029,CST-1368DR,5446,7598,14974,0.168,551
2021-05-19T08:26:53,42.805,6.029,CST-1368DR,5446,7598,14973,0.168,551
2021-05-19T08:29:55,42.805,6.029,CST-1368DR,5446,7597,14972,0.168,551
2021-05-19T08:32:57,42.805,6.029,CST-1368DR,5446,7598,14974,0.168,551
2021-05-19T08:35:58,42.805,6.029,CST-1368DR,5446,7598,14973,0.168,551
2021-05-19T08:39:00,42.805,6.029,CST-1368DR,5446,7597,14973,0.168,551
2021-05-19T08:42:01,42.805,6.029,CST-1368DR,5446,7597,14972,0.168,551
2021-05-19T08:45:03,42.805,6.029,CST-1368DR,5446,7597,14973,0.168,551
2021-05-19T08:48:05,42.805,6.029,CST-1368DR,5446,7598,14973,0.168,551
2021-05-19T08:51:06,42.805,6.029,CST-1368DR,5446,7597,14972,0.168,551
2021-05-19T08:54:08,42.805,6.029,CST-1368DR,5446,7597,14973,0.168,551
2021-05-19T08:57:09,42.805,6.029,CST-1368DR,5446,7597,14973,0.168,551
2021-05-19T09:00:11,42.805,6.029,CST-1368DR,5446,7597,14973,0.168,551
2021-05-19T09:03:12,42.805,6.029,CST-1368DR,5446,7597,14972,0.168,551
2021-05-19T09:06:14,42.805,6.029,CST-1368DR,5446,7597,14972,0.168,551
2021-05-19T09:09:16,42.805,6.029,CST-1368DR,5445,7596,14973,0.168,551
2021-05-19T09:12:17,42.805,6.029,CST-1368DR,5446,7597,14972,0.168,551
2021-05-19T09:15:19,42.805,6.029,CST-1368DR,5446,7598,14973,0.168,550
2021-05-19T09:18:20,42.805,6.029,CST-1368DR,5446,7597,14972,0.168,551
2021-05-19T09:21:22,42.805,6.029,CST-1368DR,5445,7596,14972,0.168,551
2021-05-19T09:24:23,42.805,6.029,CST-1368DR,5446,7596,14970,0.169,551
2021-05-19T09:27:25,42.805,6.029,CST-1368DR,5446,7597,14972,0.168,551
2021-05-19T09:30:27,42.805,6.029,CST-1368DR,5445,7597,14975,0.168,551
2021-05-19T09:33:28,42.805,6.029,CST-1368DR,5446,7597,14972,0.168,551
2021-05-19T09:36:30,42.805,6.029,CST-1368DR,5446,7597,14972,0.168,551
2021-05-19T09:39:31,42.805,6.029,CST-1368DR,5445,7597,14974,0.168,551
2021-05-19T09:42:33,42.805,6.029,CST-1368DR,5446,7596,14971,0.169,551
2021-05-19T09:45:35,42.805,6.029,CST-1368DR,5446,7596,14970,0.169,551
2021-05-19T09:48:36,42.805,6.029,CST-1368DR,5445,7596,14972,0.168,551
2021-05-19T09:51:38,42.805,6.029,CST-1368DR,5445,7596,14972,0.168,551
2021-05-19T09:54:39,42.805,6.029,CST-1368DR,5445,7596,14973,0.168,551
2021-05-19T09:57:41,42.805,6.029,CST-1368DR,5445,7596,14973,0.168,551
2021-05-19T10:00:42,42.805,6.029,CST-1368DR,5445,7597,14974,0.168,551
2021-05-19T10:03:44,42.805,6.029,CST-1368DR,5445,7596,14973,0.168,551
2021-05-19T10:06:46,42.805,6.029,CST-1368DR,5445,7597,14974,0.168,551
2021-05-19T10:09:47,42.805,6.029,CST-1368DR,5445,7597,14974,0.168,551
2021-05-19T10:12:49,42.805,6.029,CST-1368DR,5445,7597,14974,0.168,551
2021-05-19T10:15:50,42.805,6.029,CST-1368DR,5445,7596,14972,0.168,551
2021-05-19T10:18:52,42.805,6.029,CST-1368DR,5445,7596,14973,0.168,551
2021-05-19T10:21:54,42.805,6.029,CST-1368DR,5445,7596,14973,0.168,551
2021-05-19T10:24:55,42.805,6.029,CST-1368DR,5445,7596,14972,0.168,551
2021-05-19T10:27:57,42.805,6.029,CST-1368DR,5445,7596,14973,0.168,551
2021-05-19T10:30:58,42.805,6.029,CST-1368DR,5445,7593,14966,0.170,550
2021-05-19T10:34:00,42.805,6.029,CST-1368DR,5445,7596,14973,0.168,551
2021-05-19T10:37:01,42.805,6.029,CST-1368DR,5445,7594,14968,0.170,551
2021-05-19T10:40:03,42.805,6.029,CST-1368DR,5445,7595,14971,0.169,551
2021-05-19T10:43:05,42.805,6.029,CST-1368DR,5445,7596,14972,0.168,551
2021-05-19T10:46:06,42.805,6.029,CST-1368DR,5445,7596,14972,0.168,551
2021-05-19T10:49:08,42.805,6.029,CST-1368DR,5445,7596,14972,0.168,551
2021-05-19T10:52:09,42.805,6.029,CST-1368DR,5445,7596,14973,0.168,551
2021-05-19T10:55:11,42.805,6.029,CST-1368DR,5445,7596,14973,0.168,551
2021-05-19T10:58:12,42.805,6.029,CST-1368DR,5445,7595,14971,0.169,551
2021-05-19T11:01:14,42.805,6.029,CST-1368DR,5445,7596,14972,0.168,551
2021-05-19T11:04:16,42.805,6.029,CST-1368DR,5445,7596,14973,0.168,551
2021-05-19T11:07:17,42.805,6.029,CST-1368DR,5445,7596,14972,0.168,551
2021-05-19T11:10:19,42.805,6.029,CST-1368DR,5445,7595,14970,0.169,551
2021-05-19T11:13:20,42.805,6.029,CST-1368DR,5445,7596,14972,0.168,551
2021-05-19T11:16:22,42.805,6.029,CST-1368DR,5445,7595,14971,0.169,551
2021-05-19T11:19:24,42.805,6.029,CST-1368DR,5445,7596,14972,0.168,551
2021-05-19T11:22:25,42.805,6.029,CST-1368DR,5445,7596,14972,0.168,551
2021-05-19T11:25:27,42.805,6.029,CST-1368DR,5445,7595,14971,0.169,551
2021-05-19T11:28:28,42.805,6.029,CST-1368DR,5445,7596,14973,0.168,551
2021-05-19T11:31:30,42.805,6.029,CST-1368DR,5445,7596,14972,0.168,551
2021-05-19T11:34:31,42.805,6.029,CST-1368DR,5445,7595,14971,0.169,551
2021-05-19T11:37:33,42.805,6.029,CST-1368DR,5445,7596,14972,0.168,551
2021-05-19T11:40:35,42.805,6.029,CST-1368DR,5445,7596,14973,0.168,551
2021-05-19T11:43:36,42.805,6.029,CST-1368DR,5445,7595,14971,0.169,551
2021-05-19T11:46:38,42.805,6.029,CST-1368DR,5445,7596,14973,0.168,551
2021-05-19T11:49:39,42.805,6.029,CST-1368DR,5445,7596,14972,0.168,551
2021-05-19T11:52:41,42.805,6.029,CST-1368DR,5445,7595,14971,0.169,551
2021-05-19T11:55:42,42.805,6.029,CST-1368DR,5445,7596,14972,0.168,551
2021-05-19T11:58:44,42.805,6.029,CST-1368DR,5445,7596,14972,0.168,551
2021-05-19T12:01:46,42.805,6.029,CST-1368DR,5445,7596,14973,0.168,551
2021-05-19T12:04:47,42.805,6.029,CST-1368DR,5445,7596,14972,0.168,551
2021-05-19T12:07:49,42.805,6.029,CST-1368DR,5445,7596,14973,0.168,551
2021-05-19T12:10:50,42.805,6.029,CST-1368DR,5445,7596,14972,0.168,551
2021-05-19T12:13:52,42.805,6.029,CST-1368DR,5445,7595,14971,0.169,551
2021-05-19T12:16:54,42.805,6.029,CST-1368DR,5445,7596,14973,0.168,551
2021-05-19T12:19:55,42.805,6.029,CST-1368DR,5445,7596,14973,0.168,551
2021-05-19T12:22:57,42.805,6.029,CST-1368DR,5445,7596,14972,0.168,551
2021-05-19T12:25:58,42.805,6.029,CST-1368DR,5445,7596,14973,0.168,551
2021-05-19T12:29:00,42.805,6.029,CST-1368DR,5445,7595,14970,0.169,551
2021-05-19T12:32:01,42.805,6.029,CST-1368DR,5445,7596,14972,0.168,551
2021-05-19T12:35:03,42.805,6.029,CST-1368DR,5445,7596,14973,0.168,551
2021-05-19T12:38:05,42.805,6.029,CST-1368DR,5445,7596,14973,0.168,551
2021-05-19T12:41:06,42.805,6.029,CST-1368DR,5445,7596,14972,0.168,551
2021-05-19T12:44:08,42.805,6.029,CST-1368DR,5445,7596,14973,0.168,551
2021-05-19T12:47:09,42.805,6.029,CST-1368DR,5445,7596,14972,0.168,551
2021-05-19T12:50:11,42.805,6.029,CST-1368DR,5445,7596,14973,0.168,551
2021-05-19T12:53:13,42.805,6.029,CST-1368DR,5445,7595,14971,0.169,551
2021-05-19T12:56:14,42.805,6.029,CST-1368DR,5445,7595,14971,0.169,551
2021-05-19T12:59:16,42.805,6.029,CST-1368DR,5445,7596,14972,0.168,551
2021-05-19T13:02:17,42.805,6.029,CST-1368DR,5445,7595,14971,0.169,551
2021-05-19T13:05:19,42.805,6.029,CST-1368DR,5445,7595,14971,0.169,551
2021-05-19T13:08:20,42.805,6.029,CST-1368DR,5445,7596,14973,0.168,551
2021-05-19T13:11:22,42.805,6.029,CST-1368DR,5445,7596,14972,0.168,551
2021-05-19T13:14:24,42.805,6.029,CST-1368DR,5445,7594,14969,0.169,551
2021-05-19T13:17:25,42.805,6.029,CST-1368DR,5445,7596,14972,0.168,551
2021-05-19T13:20:27,42.805,6.029,CST-1368DR,5445,7596,14972,0.168,551
2021-05-19T13:23:28,42.805,6.029,CST-1368DR,5445,7595,14971,0.169,551
2021-05-19T13:26:30,42.805,6.029,CST-1368DR,5445,7596,14972,0.168,551
2021-05-19T13:29:31,42.805,6.029,CST-1368DR,5445,7596,14972,0.168,551
2021-05-19T13:32:33,42.805,6.029,CST-1368DR,5445,7595,14970,0.169,551
2021-05-19T13:35:35,42.805,6.029,CST-1368DR,5445,7595,14971,0.169,551
2021-05-19T13:38:36,42.805,6.029,CST-1368DR,5445,7595,14971,0.169,551
2021-05-19T13:41:38,42.805,6.029,CST-1368DR,5445,7595,14971,0.169,551
2021-05-19T13:44:39,42.805,6.029,CST-1368DR,5445,7595,14971,0.169,551
2021-05-19T13:47:41,42.805,6.029,CST-1368DR,5445,7596,14972,0.168,551
2021-05-19T13:50:43,42.805,6.029,CST-1368DR,5445,7595,14971,0.169,551
2021-05-19T13:53:44,42.805,6.029,CST-1368DR,5445,7595,14970,0.169,551
2021-05-19T13:56:46,42.805,6.029,CST-1368DR,5445,7595,14971,0.169,550
2021-05-19T13:59:47,42.805,6.029,CST-1368DR,5445,7596,14972,0.168,551
2021-05-19T14:02:49,42.805,6.029,CST-1368DR,5445,7595,14971,0.169,551
2021-05-19T14:05:50,42.805,6.029,CST-1368DR,5445,7594,14968,0.170,551
2021-05-19T14:08:52,42.805,6.029,CST-1368DR,5445,7595,14971,0.169,551
2021-05-19T14:11:54,42.805,6.029,CST-1368DR,5445,7596,14972,0.168,551
2021-05-19T14:14:55,42.805,6.029,CST-1368DR,5445,7596,14973,0.168,551
2021-05-19T14:17:57,42.805,6.029,CST-1368DR,5445,7596,14972,0.168,551
2021-05-19T14:20:58,42.805,6.029,CST-1368DR,5445,7596,14972,0.168,551
2021-05-19T14:24:00,42.805,6.029,CST-1368DR,5445,7594,14969,0.169,551
2021-05-19T14:27:02,42.805,6.029,CST-1368DR,5445,7595,14971,0.169,551
2021-05-19T14:30:03,42.805,6.029,CST-1368DR,5445,7596,14972,0.168,551
2021-05-19T14:33:05,42.805,6.029,CST-1368DR,5445,7595,14970,0.169,551
2021-05-19T14:36:06,42.805,6.029,CST-1368DR,5445,7595,14970,0.169,551
2021-05-19T14:39:08,42.805,6.029,CST-1368DR,5445,7596,14972,0.168,551
2021-05-19T14:42:09,42.805,6.029,CST-1368DR,5445,7596,14973,0.168,551
2021-05-19T14:45:11,42.805,6.029,CST-1368DR,5445,7596,14973,0.168,551
2021-05-19T14:48:13,42.805,6.029,CST-1368DR,5445,7595,14971,0.169,551
2021-05-19T14:51:14,42.805,6.029,CST-1368DR,5445,7596,14973,0.168,551
2021-05-19T14:54:16,42.805,6.029,CST-1368DR,5445,7596,14972,0.168,551
2021-05-19T14:57:17,42.805,6.029,CST-1368DR,5445,7595,14971,0.169,551
2021-05-19T15:00:19,42.805,6.029,CST-1368DR,5445,7595,14971,0.169,551
2021-05-19T15:03:20,42.805,6.029,CST-1368DR,5445,7596,14973,0.168,551
2021-05-19T15:06:22,42.805,6.029,CST-1368DR,5445,7596,14973,0.168,551
2021-05-19T15:09:24,42.805,6.029,CST-1368DR,5445,7596,14973,0.168,551
2021-05-19T15:12:25,42.805,6.029,CST-1368DR,5445,7596,14972,0.168,551
2021-05-19T15:15:27,42.805,6.029,CST-1368DR,5445,7596,14972,0.168,551
2021-05-19T15:18:28,42.805,6.029,CST-1368DR,5445,7596,14973,0.168,551
2021-05-19T15:21:30,42.805,6.029,CST-1368DR,5445,7596,14973,0.168,551
2021-05-19T15:24:32,42.805,6.029,CST-1368DR,5445,7596,14972,0.168,551
2021-05-19T15:27:33,42.805,6.029,CST-1368DR,5445,7596,14973,0.168,551
2021-05-19T15:30:35,42.805,6.029,CST-1368DR,5445,7596,14972,0.168,551
2021-05-19T15:33:36,42.805,6.029,CST-1368DR,5445,7596,14972,0.168,551
2021-05-19T15:36:38,42.805,6.029,CST-1368DR,5445,7596,14973,0.168,551
2021-05-19T15:39:39,42.805,6.029,CST-1368DR,5445,7596,14973,0.168,551
2021-05-19T15:42:41,42.805,6.029,CST-1368DR,5445,7596,14973,0.168,551
2021-05-19T15:45:43,42.805,6.029,CST-1368DR,5445,7596,14973,0.168,551
2021-05-19T15:48:44,42.805,6.029,CST-1368DR,5445,7597,14974,0.168,551
2021-05-19T15:51:46,42.805,6.029,CST-1368DR,5445,7596,14973,0.168,551
2021-05-19T15:54:47,42.805,6.029,CST-1368DR,5445,7596,14973,0.168,551
2021-05-19T15:57:49,42.805,6.029,CST-1368DR,5445,7597,14974,0.168,551
2021-05-19T16:00:51,42.805,6.029,CST-1368DR,5445,7596,14973,0.168,551
2021-05-19T16:03:52,42.805,6.029,CST-1368DR,5445,7596,14973,0.168,551
2021-05-19T16:06:54,42.805,6.029,CST-1368DR,5445,7597,14975,0.168,551
2021-05-19T16:09:55,42.805,6.029,CST-1368DR,5445,7597,14975,0.168,551
2021-05-19T16:12:57,42.805,6.029,CST-1368DR,5445,7596,14973,0.168,551
2021-05-19T16:15:58,42.805,6.029,CST-1368DR,5445,7596,14972,0.168,551
2021-05-19T16:19:00,42.805,6.029,CST-1368DR,5445,7597,14974,0.168,551
2021-05-19T16:22:02,42.805,6.029,CST-1368DR,5445,7597,14975,0.168,551
2021-05-19T16:25:03,42.805,6.029,CST-1368DR,5445,7596,14973,0.168,551
2021-05-19T16:28:05,42.805,6.029,CST-1368DR,5445,7596,14973,0.168,551
2021-05-19T16:31:06,42.805,6.029,CST-1368DR,5445,7597,14974,0.168,551
2021-05-19T16:34:08,42.805,6.029,CST-1368DR,5445,7596,14973,0.168,551
2021-05-19T16:37:09,42.805,6.029,CST-1368DR,5445,7597,14974,0.168,551
2021-05-19T16:40:11,42.805,6.029,CST-1368DR,5445,7597,14975,0.168,551
2021-05-19T16:43:13,42.805,6.029,CST-1368DR,5445,7596,14973,0.168,551
2021-05-19T16:46:14,42.805,6.029,CST-1368DR,5445,7596,14973,0.168,551
2021-05-19T16:49:16,42.805,6.029,CST-1368DR,5445,7596,14973,0.168,551
2021-05-19T16:52:17,42.805,6.029,CST-1368DR,5445,7596,14973,0.168,551